sat.trackr.live / text

‹ back to catalog

XINZHENGCHENG 01

NORAD 68414 · 2026-066C

PAYLOAD ACTIVE UNKNOWN

§ Identity

Operator
Country
PRC
Launch date
2026-03-30
Launch site
JSC
Launch vehicle
Mass (kg)
RCS (m²)

External: N2YO · Heavens-Above · Gunter

§ Orbital elements

Epoch: 2026-09-20T01:29:28.673952Z

Period
96.72 min
Inclination
84.9707°
Eccentricity
0.0023907
Mean motion
14.88779156 rev/d
Perigee alt
585.1 km
Apogee alt
618.4 km
Semi-major
6,979.9 km
B*
6.1735e-5
RAAN
167.3664°
Arg perigee
284.4806°
Mean anomaly
75.3765°
Rev number
2,584

§ Raw data

XINZHENGCHENG 011 68414U 26066C   26263.06213743  .00000610  00000+0  61735-4 0  99902 68414  84.9707 167.3664 0023907 284.4806  75.3765 14.88779156 25844

JSON: /api/v1/satellites/68414 · /tle

For live sub-satellite position, see the globe view (requires WebGL).

§ Visibility from observer

Set your observer location to see the next 7 days of passes ≥ 10°. The values pass through the URL so the page stays shareable.

No JS? Fill the form by hand. The geolocation button needs JavaScript.